#timestamp,LO_Frequency,Hit,StdDev 
1621134015.7,286047011.4,P
1621134035.5,286047013.7,P
1621134055.3,286047011.0,P
1621134075.2,286047010.5,Y
1621134095.0,286046995.6,P
1621134095.9,286046995.6,N
1621134115.8,286046999.4,N
1621134135.6,286046999.0,N
1621134155.4,286046993.5,N
1621134175.3,286046992.7,N
1621134195.1,286046988.3,N
1621134215.9,286046988.2,N
1621134235.7,286046992.1,N
1621134255.5,286047001.2,N
1621134275.4,286047005.7,N
1621134295.2,286047005.5,N
1621134315.0,286047005.3,N
1621134315.9,286047005.3,N
1621134335.8,286047007.1,N
1621134355.6,286047010.4,N
1621134375.5,286047007.0,N
1621134395.3,286047007.2,N
1621134415.1,286047006.3,N
1621134435.9,286047008.1,N
1621134455.7,286047012.8,N
1621134475.5,286047014.7,N
1621134495.4,286047014.8,N
1621134515.2,286047022.3,N
1621134535.1,286047022.1,N
1621134536.0,286047022.1,N
1621134555.8,286047027.9,N
1621134575.6,286047024.6,N
1621134595.5,286047026.4,N
1621134615.3,286047027.8,N
1621134635.2,286047031.1,N
1621134655.9,286047027.3,N
1621134675.7,286047028.2,N
1621134695.6,286047033.9,N
1621134715.4,286047035.0,N
1621134735.2,286047035.9,N
1621134755.1,286047030.6,N
1621134756.0,286047030.6,N
1621134775.8,286047031.8,N
1621134795.7,286047030.5,N
1621134815.5,286047025.5,N
1621134835.3,286047025.4,N
1621134855.2,286047028.1,N
1621134875.0,286047026.8,N
1621134875.9,286047026.8,N
1621134895.7,286047024.2,N
1621134915.6,286047030.5,Y
1621134935.4,286047010.9,P
1621134955.3,286047017.3,N
1621134975.1,286047020.3,P
1621134995.8,286047024.8,Y
1621135015.7,286047004.5,P
1621135035.5,286047005.9,N
1621135055.4,286047002.3,N
1621135075.2,286047000.4,N
1621135095.0,286046998.5,N
1621135095.9,286046998.5,N
1621135115.8,286046997.0,N
1621135135.6,286047001.1,N
1621135155.4,286047004.6,N
1621135175.3,286047005.1,N
1621135195.1,286046998.9,N
1621135215.9,286046996.7,N
1621135235.7,286047002.6,N
1621135255.5,286047001.2,N
1621135275.4,286047003.9,N
1621135295.2,286047007.9,N
1621135315.0,286047005.3,N
1621135316.0,286047005.3,N
1621135335.8,286047004.2,N
1621135355.6,286047007.8,N
1621135375.5,286047015.4,Y
1621135395.3,286047014.6,P
1621135415.1,286047018.4,P
1621135435.9,286047015.8,N
1621135455.7,286047012.6,N
1621135475.6,286047006.3,N
1621135495.4,286047006.5,N
1621135515.2,286047010.8,N
1621135535.1,286047001.9,N
1621135536.0,286047001.9,N
1621135555.8,286047007.7,N
1621135575.6,286047013.8,N
1621135595.5,286047012.9,N
1621135615.3,286047018.7,Y
1621135635.2,286047017.0,P
1621135655.9,286047013.0,P
1621135675.7,286047003.1,N
1621135695.6,286046998.6,N
1621135715.4,286046999.2,N
1621135735.3,286046997.3,N
1621135755.1,286047007.7,N
1621135756.0,286047007.7,N
1621135775.8,286047006.2,N
1621135795.7,286047003.9,N
1621135815.5,286046999.3,N
1621135835.3,286047001.0,N
1621135855.2,286046999.8,N
1621135875.0,286047003.7,N
1621135875.9,286047003.7,N
1621135895.8,286047008.9,N
1621135915.6,286047008.3,N
1621135935.4,286047006.9,N
1621135955.3,286047000.2,N
1621135975.1,286046995.6,N
1621135995.9,286046992.9,N
1621136015.7,286046980.6,Y
1621136035.5,286046974.4,P
1621136055.4,286046973.1,N
1621136075.2,286046971.5,N
1621136095.1,286046973.8,N
1621136096.0,286046973.8,N
1621136115.8,286046972.7,N
1621136135.6,286046970.1,N
1621136155.5,286046970.5,N
1621136175.3,286046973.0,N
1621136195.2,286046974.4,N
1621136215.9,286046975.4,N
1621136235.7,286046973.6,Y
1621136255.6,286046996.9,P
1621136275.4,286047004.3,N
1621136295.2,286047008.6,N
1621136315.1,286047005.2,N
1621136316.0,286047005.2,N
1621136335.8,286047004.1,N
1621136355.7,286047003.3,N
1621136375.5,286047006.0,N
1621136395.3,286047005.4,N
1621136415.2,286047010.4,N
1621136435.0,286047015.6,N
1621136435.9,286047015.6,N
1621136455.8,286047011.8,N
1621136475.6,286047004.9,N
1621136495.4,286047005.2,N
1621136515.3,286047004.3,N
1621136535.1,286047001.2,N
1621136555.8,286047002.8,N
1621136575.7,286047001.2,N
1621136595.5,286046997.5,N
1621136615.4,286046994.3,N
1621136635.2,286046989.7,N
1621136655.0,286046982.3,N
1621136655.9,286046982.3,N
1621136675.8,286046976.9,N
1621136695.6,286046972.8,N
1621136715.4,286046977.3,N
1621136735.3,286046975.9,N
1621136755.1,286046976.7,N
1621136775.9,286046971.7,N
1621136795.7,286046966.0,N
1621136815.5,286046960.3,N
1621136835.4,286046960.2,N
1621136855.2,286046958.5,N
1621136875.1,286046962.2,N
1621136876.0,286046962.2,N
1621136895.8,286046953.6,N
1621136915.6,286046952.8,N
1621136935.5,286046949.3,N
1621136955.3,286046947.9,N
1621136975.1,286046948.4,N
1621136995.9,286046954.4,N
1621137015.7,286046958.0,N
1621137035.6,286046958.5,N
1621137055.4,286046965.5,N
1621137075.2,286046963.4,N
1621137095.1,286046963.0,N
1621137096.0,286046963.0,N
1621137115.8,286046962.7,N
1621137135.7,286046962.5,N
1621137155.5,286046965.9,N
1621137175.3,286046975.4,N
1621137195.2,286046975.9,N
1621137215.9,286046981.0,N
1621137235.7,286046984.1,N
1621137255.6,286046980.5,N
1621137275.4,286046989.9,N
1621137295.3,286046990.7,N
1621137315.1,286046995.7,N
1621137316.0,286046995.7,N
1621137335.8,286046997.3,N
1621137355.7,286046997.8,N
1621137375.5,286046992.9,N
1621137395.3,286046986.1,N
1621137415.2,286046980.6,N
1621137435.0,286046978.6,N
1621137435.9,286046978.6,N
1621137455.8,286046980.0,N
1621137475.6,286046979.6,N
1621137495.4,286046975.3,N
1621137515.3,286046975.4,N
1621137535.1,286046977.6,N
1621137555.9,286046975.9,N
1621137575.7,286046971.4,N
1621137595.5,286046971.6,N
